Wind_Speed
33 31 31 28 30 31 32 38 37 35 39 41 43 44 42 41 40 40 36 33 32 30 28 27 27 27 25 25 26 26 21 20
31 31 31 30 28 29 30 33 37 41 44 46 46 49 47 44 42 40 39 35 33 29 27 28 28 25 25 25 22 21 18 18
31 31 30 26 27 29 30 30 30 34 38 43 45 47 45 42 43 43 42 36 32 32 29 29 27 27 25 23 20 18 19 22
35 31 32 33 31 28 28 30 32 31 33 34 35 39 40 44 46 45 43 36 32 31 31 29 28 28 27 25 21 21 21 20
29 31 33 31 31 33 33 33 32 34 35 34 35 39 41 44 43 38 34 31 31 32 36 33 30 30 29 30 28 25 24 21
24 26 29 29 31 32 34 35 35 36 37 38 39 40 39 40 39 37 34 32 33 33 34 36 35 33 32 31 31 29 27 25
29 28 26 28 29 31 32 35 36 36 38 39 39 38 38 40 40 39 38 36 35 38 39 41 38 35 35 35 34 34 32 30
33 35 35 33 32 32 32 33 35 38 38 38 41 43 44 41 38 39 41 38 38 40 43 44 42 40 39 38 38 38 38 35
35 36 36 39 40 40 43 43 40 36 37 37 38 38 40 41 45 43 37 40 41 42 45 47 45 44 43 43 43 42 43 42
37 40 41 40 42 41 42 43 45 44 42 40 42 42 42 43 43 41 43 41 44 44 42 48 49 48 47 47 46 46 47 47
40 38 43 43 44 47 47 50 49 46 48 50 50 49 47 47 47 47 45 44 46 46 49 50 53 54 55 54 50 49 50 52
38 42 42 45 47 50 51 48 51 52 54 54 57 58 57 55 54 51 51 50 48 49 52 54 56 59 59 57 58 58 58 57
47 50 53 57 54 54 56 58 52 48 55 57 59 61 63 62 61 57 57 57 56 55 55 56 59 61 62 64 64 63 61 59
53 55 60 60 61 62 60 60 62 56 57 62 66 66 69 69 69 68 64 61 63 63 63 62 60 61 63 66 66 68 68 67
58 62 69 72 71 68 71 71 74 67 68 67 61 61 61 64 70 72 70 69 66 68 69 70 70 68 69 67 68 69 71 70
66 68 71 76 76 76 77 78 79 84 83 73 69 71 59 56 56 58 59 60 64 69 71 72 73 74 75 74 74 73 73 73
70 75 77 79 80 83 82 87 89 89 87 87 79 70 67 57 55 50 51 56 62 69 73 75 78 79 79 78 77 77 74 74
70 72 77 81 84 87 87 91 88 91 89 89 90 80 74 66 65 61 60 61 66 73 70 74 77 77 80 83 80 77 78 79
79 77 84 82 83 91 94 94 88 89 88 89 89 88 85 78 81 72 68 70 78 75 74 79 87 88 88 87 85 87 86 89
82 88 88 88 92 99 93 93 94 89 90 92 90 91 86 87 86 83 72 66 76 77 71 89 98 86 91 92 93 95 95 100
Wind_Direction
303 303 301 295 291 285 273 271 271 273 264 270 274 276 277 282 282 281 282 283 282 280 275 273 275 275 271 270 275 279 280 280
295 298 301 295 291 286 283 278 272 270 267 266 271 277 278 282 279 279 280 284 280 272 270 273 272 271 267 270 273 276 277 272
290 287 290 290 289 289 288 288 283 277 273 269 273 274 275 276 275 278 282 280 272 267 265 273 272 267 264 266 268 273 266 265
293 283 287 289 288 285 287 291 291 291 285 276 271 273 273 274 277 279 277 273 264 262 264 264 268 265 257 257 265 273 270 267
284 283 285 286 288 290 289 286 284 285 284 282 280 276 277 276 276 274 273 269 260 260 268 259 263 260 258 257 259 267 264 265
288 284 283 286 286 284 284 284 286 284 281 281 282 277 279 280 278 273 268 269 259 264 262 256 259 258 258 258 259 258 256 259
294 289 290 290 289 291 289 285 280 281 280 280 277 275 276 280 281 278 277 269 263 265 268 262 258 255 258 258 257 258 257 260
293 288 287 288 288 287 287 285 284 281 279 278 277 275 277 274 274 275 274 268 262 267 268 264 260 258 259 259 257 256 258 260
289 287 287 284 282 287 290 288 284 284 280 280 281 277 277 281 280 274 274 265 261 262 268 265 261 261 261 261 262 260 259 259
291 288 284 284 281 282 281 285 286 285 284 284 284 285 283 282 279 279 276 274 265 264 267 266 264 263 263 264 264 264 264 264
289 281 275 279 279 275 281 282 283 285 284 282 281 280 279 283 283 279 276 275 271 269 266 264 263 265 265 265 265 266 268 267
290 285 279 273 275 274 279 283 285 286 282 283 284 283 282 279 279 278 278 277 274 270 270 268 266 265 267 267 268 268 268 270
293 291 298 295 291 290 285 280 284 287 280 277 273 276 280 283 284 283 278 275 275 275 272 270 270 270 271 272 273 273 273 270
287 285 292 297 301 303 298 292 287 282 286 287 288 288 282 279 278 280 280 279 277 274 273 271 269 269 271 272 273 273 274 273
287 287 287 291 292 296 299 301 297 295 291 290 292 290 287 282 278 274 273 275 276 276 274 272 270 270 267 267 269 271 271 272
279 281 281 285 288 291 293 292 296 294 290 291 294 292 286 282 278 276 275 273 271 272 271 271 272 271 269 270 269 268 268 270
283 281 280 281 284 288 297 296 292 294 290 287 289 290 287 279 272 270 277 280 277 277 272 270 269 270 271 271 272 272 269 269
288 279 279 278 281 283 286 289 292 288 287 286 286 284 282 281 279 275 278 278 281 284 278 274 274 271 270 268 267 269 271 271
292 282 277 278 280 283 278 285 285 284 282 281 281 284 282 279 275 278 279 276 289 280 275 277 279 270 268 267 269 266 261 263
286 283 280 275 276 282 282 279 277 277 276 277 279 278 279 276 271 280 281 288 292 284 272 268 270 271 272 270 267 267 269 266
Height
10752 10751 10750 10749 10748 10748 10747 10747 10747 10748 10750 10749 10748 10748 10748 10749 10750 10750 10751 10751 10752 10752 10752 10751 10752 10752 10751 10750 10750 10749 10750 10750
10748 10746 10745 10744 10743 10741 10741 10739 10739 10740 10741 10740 10739 10739 10740 10742 10743 10743 10743 10743 10744 10745 10745 10743 10745 10745 10745 10745 10745 10743 10743 10744
10743 10742 10739 10738 10737 10736 10735 10734 10733 10732 10732 10732 10732 10731 10732 10733 10734 10735 10735 10735 10736 10738 10738 10737 10738 10739 10739 10739 10739 10739 10738 10739
10738 10737 10735 10734 10732 10731 10731 10729 10728 10727 10726 10726 10726 10725 10725 10726 10726 10727 10727 10727 10728 10730 10730 10729 10730 10731 10733 10733 10733 10733 10733 10733
10731 10730 10730 10730 10730 10728 10726 10725 10723 10722 10721 10720 10719 10718 10718 10718 10718 10719 10719 10719 10720 10721 10721 10722 10722 10724 10725 10726 10726 10726 10727 10728
10724 10723 10723 10722 10722 10721 10721 10720 10718 10717 10716 10715 10715 10714 10712 10711 10711 10712 10712 10713 10714 10714 10713 10713 10714 10715 10717 10718 10719 10719 10720 10720
10719 10718 10717 10715 10714 10714 10713 10712 10711 10711 10710 10709 10709 10708 10706 10706 10705 10705 10706 10706 10706 10707 10707 10706 10705 10706 10707 10709 10710 10711 10712 10711
10713 10712 10711 10709 10708 10707 10706 10705 10705 10704 10702 10701 10701 10701 10699 10698 10697 10697 10698 10698 10698 10698 10698 10698 10697 10698 10699 10699 10700 10702 10702 10701
10707 10706 10704 10702 10700 10700 10700 10699 10698 10697 10695 10695 10694 10692 10692 10690 10690 10690 10690 10689 10689 10690 10689 10689 10691 10691 10691 10692 10693 10694 10694 10693
10699 10696 10694 10694 10695 10693 10691 10690 10689 10688 10688 10688 10686 10685 10685 10683 10682 10681 10681 10681 10681 10681 10680 10681 10682 10683 10683 10683 10684 10684 10685 10685
10689 10687 10685 10684 10683 10683 10683 10682 10680 10678 10679 10677 10675 10674 10675 10674 10673 10673 10672 10672 10672 10671 10671 10671 10671 10671 10671 10672 10672 10673 10674 10673
10678 10676 10676 10675 10672 10671 10672 10671 10671 10669 10667 10666 10664 10663 10662 10663 10662 10662 10661 10661 10661 10660 10659 10659 10659 10659 10659 10659 10659 10660 10659 10659
10669 10664 10662 10660 10660 10661 10662 10660 10658 10656 10655 10654 10652 10650 10649 10648 10648 10649 10648 10647 10648 10648 10647 10646 10646 10645 10646 10645 10646 10647 10646 10646
10657 10654 10650 10648 10644 10644 10647 10646 10645 10642 10640 10639 10637 10635 10633 10633 10632 10631 10630 10629 10631 10632 10633 10633 10630 10630 10631 10631 10632 10632 10632 10633
10646 10643 10638 10632 10631 10630 10629 10627 10627 10626 10623 10623 10621 10621 10618 10615 10613 10613 10612 10611 10612 10612 10613 10615 10615 10615 10613 10614 10616 10618 10616 10617
10634 10632 10628 10622 10615 10616 10615 10613 10612 10608 10606 10604 10603 10604 10603 10600 10596 10595 10595 10593 10592 10591 10592 10595 10597 10598 10597 10596 10597 10599 10600 10601
10623 10620 10616 10611 10604 10600 10600 10594 10591 10590 10587 10585 10587 10584 10583 10584 10582 10577 10576 10575 10574 10575 10575 10575 10578 10578 10579 10578 10579 10579 10580 10580
10605 10603 10599 10598 10596 10588 10583 10581 10576 10572 10568 10564 10563 10565 10567 10564 10562 10560 10559 10556 10554 10553 10554 10554 10556 10559 10559 10558 10558 10558 10560 10559
10584 10582 10579 10576 10573 10570 10566 10562 10556 10551 10549 10547 10546 10543 10542 10542 10540 10540 10539 10539 10536 10531 10527 10527 10530 10535 10535 10537 10539 10540 10541 10541
10559 10555 10553 10551 10548 10544 10540 10538 10535 10530 10526 10522 10522 10520 10520 10518 10515 10516 10516 10516 10516 10519 10509 10509 10505 10505 10509 10514 10515 10516 10518 10519